GFSNGP_prec_cthk_327.txt.gz
RH
40 39 31 27 22 24 28 25 25 17 21 20 23 24 25 30 36 37 40 40 40 40 41 42 44 45 48 50 54 63 69 73 75 77 79 79 76 73 68 63 62 56 48 43
43 46 47 46 43 44 39 36 36 35 38 37 37 40 41 43 43 43 42 43 45 45 46 47 48 52 58 65 70 72 69 76 78 81 79 74 69 62 62 59 51 43 40 37
55 57 52 56 57 56 55 53 51 52 46 45 44 44 44 44 43 43 42 42 43 43 45 50 54 59 68 69 70 73 78 80 78 75 69 63 61 57 49 40 36 33 31 30
61 55 64 51 46 46 47 47 47 45 43 42 42 44 44 43 42 42 43 42 43 45 50 53 56 63 68 74 75 76 74 71 66 63 59 53 44 35 30 27 24 26 28 27
63 53 48 44 42 42 42 40 40 39 40 41 40 40 41 42 42 43 44 44 45 49 51 55 61 68 72 72 71 68 63 61 57 50 40 32 28 26 24 24 25 23 21 19
59 57 54 44 39 38 38 42 40 37 35 37 39 39 42 44 44 44 45 48 50 52 57 61 66 68 68 67 63 58 56 49 39 30 28 25 22 22 20 18 17 17 18 21
59 53 47 43 40 40 41 38 35 36 37 39 38 39 42 45 46 47 48 51 55 58 58 60 62 64 63 58 55 50 41 31 28 22 18 18 17 17 17 17 17 20 24 32
58 61 55 42 39 38 34 35 38 39 38 38 39 42 45 47 49 51 53 56 58 60 59 61 62 59 55 52 44 34 28 22 15 13 12 12 15 16 18 20 25 31 33 32
51 49 42 35 33 35 37 39 41 40 39 38 41 44 48 51 54 56 60 60 60 60 61 61 56 52 47 39 30 24 16 13 12 9 10 13 16 18 21 26 28 28 30 31
49 46 44 40 40 41 41 43 43 41 39 41 43 48 52 55 57 58 61 61 61 61 59 53 50 43 33 27 19 14 12 10 9 10 9 15 19 23 26 24 26 33 37 42
48 47 45 44 42 41 44 45 43 41 41 44 47 52 56 57 57 61 60 61 60 55 51 47 39 30 24 16 14 11 9 9 10 10 14 18 24 26 24 26 29 34 46 56
51 48 45 44 43 45 45 45 42 41 46 49 53 57 59 58 59 61 62 59 53 49 44 35 28 21 15 13 10 9 9 9 11 13 18 25 26 22 25 30 41 53 57 61
50 48 46 44 45 46 46 46 43 47 50 52 58 61 61 60 62 62 59 51 46 42 32 27 18 15 12 10 9 9 10 12 13 17 24 26 23 21 30 45 55 57 64 70
51 49 48 47 47 48 48 46 47 51 54 59 63 62 63 64 64 60 51 45 41 32 25 17 15 11 10 10 10 10 12 13 15 20 26 23 21 31 43 50 56 66 74 84
52 49 47 47 48 50 48 47 50 53 57 60 62 65 66 65 60 50 45 40 31 23 16 14 11 10 10 10 11 13 14 15 16 23 24 18 29 41 51 57 66 75 86 86
54 51 50 49 50 48 46 48 52 55 60 62 65 66 65 61 51 45 40 30 21 16 13 11 11 11 11 12 13 14 14 15 16 18 20 25 36 49 57 63 73 83 85 86
54 54 53 52 49 47 48 52 55 59 62 65 66 65 62 54 47 40 29 20 16 13 11 11 12 12 12 14 14 14 14 15 16 19 22 31 43 54 62 70 78 84 83 80
55 53 51 49 47 48 50 54 59 62 64 67 65 62 58 49 41 29 19 17 13 11 11 12 13 13 13 14 14 14 13 15 16 18 24 36 47 59 64 72 80 82 77 72
59 56 54 52 50 50 53 57 61 62 66 67 63 61 54 43 29 19 17 13 11 12 13 13 13 13 13 13 13 13 13 14 17 18 27 38 52 59 64 69 76 77 74 74
60 56 52 51 52 54 56 60 61 63 65 63 62 60 46 29 19 16 14 12 12 13 14 14 14 12 12 11 11 12 12 14 18 21 30 41 54 60 65 68 73 73 74 78
59 54 53 53 55 58 62 61 62 65 64 62 62 51 30 19 16 14 13 13 13 14 15 14 13 12 11 10 9 11 13 14 19 24 32 44 55 61 66 68 71 71 76 81
58 54 53 54 57 59 61 62 65 65 62 64 56 32 20 16 14 14 14 14 14 15 15 15 13 12 11 10 10 10 13 15 21 27 35 46 57 62 66 70 70 69 73 79
57 55 55 56 58 60 61 63 62 61 64 58 33 21 17 14 14 15 15 15 16 16 15 15 14 12 12 11 11 11 14 16 21 29 37 48 59 63 66 69 69 68 72 77
58 58 58 58 60 62 62 59 60 63 58 37 23 17 14 14 15 16 15 15 16 17 17 16 15 14 13 12 11 12 14 17 20 29 40 49 60 64 65 68 68 67 71 77
59 59 59 59 62 61 60 61 64 56 38 26 18 15 14 15 16 15 16 17 18 18 18 17 16 14 14 13 12 13 15 18 20 26 40 51 62 66 65 67 68 66 69 77
61 61 62 63 62 60 60 62 51 38 29 19 16 15 16 16 16 17 18 20 20 20 19 17 16 14 14 13 13 14 16 19 21 24 34 49 62 69 69 67 68 67 66 76
65 64 63 62 58 59 59 47 37 31 22 16 15 16 16 16 18 19 21 22 21 20 19 17 15 14 13 13 14 15 17 20 21 23 27 39 57 70 74 70 69 69 66 72

GFSNGP_prec_cthk_333.txt.gz
RH
38 36 33 36 36 38 43 32 29 21 18 18 25 27 25 29 34 40 46 49 47 48 48 48 49 49 50 52 52 54 58 61 66 71 72 72 66 60 52 48 51 49 42 35
42 37 37 33 37 38 40 39 29 29 31 35 35 37 41 44 50 48 45 45 46 45 46 48 49 49 51 52 54 57 60 65 68 68 65 57 48 43 46 46 41 34 28 27
46 43 45 48 41 41 43 39 42 47 49 48 49 54 50 48 45 44 44 43 44 45 46 48 50 52 53 57 57 59 61 63 63 57 46 40 42 43 37 31 25 23 22 24
46 46 76 47 47 46 46 47 47 47 45 44 45 45 45 45 41 40 42 44 45 47 49 51 52 53 56 57 58 59 59 56 46 40 41 38 30 27 22 21 21 21 23 30
62 47 43 45 45 41 40 41 42 43 43 47 43 41 40 38 42 43 45 46 48 49 50 51 52 53 57 57 55 55 49 43 41 39 28 22 20 19 20 20 21 22 29 31
47 52 53 45 40 36 36 39 39 39 42 42 36 39 49 45 42 43 45 47 49 51 53 54 56 58 55 55 53 45 42 39 29 22 18 17 17 20 20 21 22 27 30 31
49 49 42 40 36 35 41 43 40 37 35 34 39 43 44 41 42 44 45 48 50 53 55 57 57 56 56 51 44 40 33 23 17 15 14 17 19 20 22 22 23 29 32 35
48 59 58 41 36 39 41 38 35 33 35 41 41 40 40 41 42 44 46 50 52 55 57 58 57 55 48 42 38 28 18 14 13 14 18 15 21 22 23 22 25 31 32 40
41 44 41 42 39 40 39 36 33 35 41 39 40 41 40 41 44 46 48 50 53 56 57 57 55 49 42 38 24 16 12 12 15 16 17 20 22 23 21 22 26 33 37 42
44 45 47 43 40 40 38 36 37 41 41 41 41 39 40 42 44 47 49 52 53 55 57 56 52 44 35 22 15 11 11 14 17 18 17 22 22 20 21 26 34 36 42 49
45 49 50 45 41 39 41 39 40 42 42 42 39 39 39 42 45 49 51 54 55 57 57 55 48 35 21 15 12 12 13 16 19 17 23 22 20 20 23 33 35 38 46 53
46 49 54 48 44 41 44 41 41 42 43 42 39 39 41 44 48 51 53 56 58 58 57 53 39 21 16 13 13 14 15 17 17 19 22 21 19 21 30 34 38 42 48 56
50 50 55 51 47 46 46 45 43 45 43 42 41 42 44 47 50 52 57 57 57 58 57 43 23 16 14 14 15 16 17 17 18 22 22 21 21 26 33 42 44 48 56 62
54 52 56 54 51 50 49 48 46 46 46 44 43 45 47 49 52 55 57 58 58 59 49 27 17 13 11 13 17 18 18 18 17 20 22 21 23 28 35 42 48 55 60 66
57 53 57 58 54 52 51 47 47 47 47 45 45 46 49 52 53 57 58 58 58 54 33 20 15 13 12 14 17 18 19 19 17 17 22 20 26 30 38 44 49 55 63 68
62 55 58 60 57 54 51 49 48 48 47 45 46 48 51 54 56 58 57 56 57 42 23 10 12 13 12 14 17 19 20 17 15 16 23 25 28 33 39 45 50 56 61 69
66 61 59 61 61 56 54 51 51 49 47 47 49 50 53 55 57 57 56 59 48 30 20 17 14 12 13 13 15 19 19 18 16 19 23 27 30 34 40 46 50 55 61 68
67 60 61 64 59 56 56 55 54 52 50 51 52 53 55 56 58 57 57 51 30 20 18 15 11 13 15 14 15 20 19 17 17 18 21 26 27 35 40 46 50 55 60 65
68 63 64 65 63 59 59 58 57 54 52 54 55 56 55 56 56 53 53 34 23 21 18 13 12 14 18 15 16 21 19 18 18 19 22 24 32 36 41 47 50 55 60 65
68 67 66 66 62 61 62 62 59 55 56 58 58 56 54 54 52 51 39 30 26 22 17 12 14 17 18 17 16 21 20 19 18 20 23 25 35 38 42 48 52 56 60 65
66 67 68 69 68 66 66 65 60 59 59 60 57 54 51 51 51 43 29 28 22 13 13 14 15 16 18 18 20 22 20 20 20 21 23 26 31 37 41 46 52 57 60 64
73 74 72 72 72 72 71 68 65 62 61 59 55 52 51 51 46 31 28 30 17 14 14 16 16 18 19 19 24 20 18 18 21 22 23 24 30 35 40 46 52 56 60 64
78 74 75 77 77 76 73 70 66 64 62 58 53 52 51 47 34 25 24 20 15 15 16 16 18 20 21 21 19 17 16 20 21 21 22 23 28 34 40 46 52 57 61 63
78 77 78 78 78 76 71 69 66 63 59 54 53 51 48 39 33 30 25 17 16 16 17 19 20 21 22 21 18 16 17 21 17 14 20 20 25 31 38 45 52 55 59 60
80 81 80 79 76 73 69 65 63 59 56 55 53 51 39 33 25 22 18 17 18 19 19 20 22 23 23 21 18 16 15 18 13 13 14 16 20 22 32 41 48 52 55 60
77 77 78 77 71 68 66 65 62 62 60 56 53 42 34 27 22 20 19 19 20 20 21 22 23 23 22 20 17 16 15 14 13 13 14 15 17 18 20 28 43 53 57 59
76 75 74 71 72 71 71 69 65 66 61 53 43 34 25 23 22 21 21 22 21 21 22 24 24 24 22 20 17 16 15 14 13 13 14 15 16 18 20 21 26 46 59 61

GFSNGP_prec_cthk_336.txt.gz
RH
35 39 37 35 35 39 43 34 37 29 28 25 34 34 32 32 40 43 46 48 50 49 48 46 46 48 51 53 56 56 56 59 61 62 65 66 60 52 42 39 39 33 27 25
41 36 34 34 32 40 41 39 40 42 39 40 38 34 37 46 51 52 50 49 47 44 44 46 47 48 49 50 51 54 57 58 60 60 58 50 42 38 37 30 23 21 21 22
42 40 39 44 42 42 43 43 44 44 43 47 47 48 55 52 48 47 46 43 43 44 45 46 49 51 53 54 55 56 56 56 54 50 43 39 35 28 21 17 17 19 21 23
48 47 71 44 42 46 45 46 47 46 49 47 48 49 47 48 45 42 41 43 45 46 48 49 51 52 54 55 56 56 53 51 47 42 36 28 21 16 16 16 18 21 22 23
63 52 44 42 43 45 44 40 40 43 44 46 47 47 47 42 39 41 42 44 46 48 48 49 50 52 53 55 54 53 51 45 38 31 21 15 14 15 15 17 20 21 21 23
52 54 51 40 43 44 39 37 38 41 42 44 43 41 44 44 45 43 44 44 46 48 49 51 52 53 54 53 52 49 42 35 24 17 13 13 14 15 17 20 22 21 23 27
55 52 39 41 41 42 41 39 36 38 40 39 34 38 43 44 43 43 43 44 48 50 52 52 52 53 52 51 49 41 30 20 14 12 13 14 15 18 21 22 21 23 26 31
53 60 56 40 38 43 43 37 35 34 35 35 37 40 41 41 41 41 43 46 49 50 50 51 52 52 51 49 41 27 17 12 12 13 14 15 17 21 22 21 23 26 28 34
48 47 39 38 41 44 45 38 36 34 35 35 39 40 40 39 39 41 43 46 49 50 50 50 52 52 52 46 27 16 11 12 13 14 15 18 21 23 22 22 25 27 31 35
55 48 43 40 39 43 45 40 39 36 33 37 39 40 39 38 39 41 43 47 50 50 49 51 51 51 49 30 16 11 11 13 15 16 17 20 23 22 21 25 29 30 33 36
55 55 48 43 44 47 46 41 42 37 37 40 40 40 37 38 39 41 44 49 50 50 51 51 51 51 36 18 11 11 13 14 15 16 20 23 23 20 24 28 32 35 37 39
57 58 51 44 46 50 48 43 42 41 42 41 40 39 37 38 40 42 46 49 49 51 51 50 51 42 24 12 10 10 14 15 16 18 22 23 20 22 27 30 33 36 41 43
59 59 56 50 46 54 51 45 44 44 43 42 41 40 38 39 41 45 47 49 50 50 50 51 45 28 16 10 10 13 14 16 17 19 22 23 20 25 27 33 38 40 43 46
55 58 60 50 47 52 56 50 47 46 45 44 42 41 40 41 43 47 49 50 50 50 50 50 33 19 12 9 10 13 16 17 18 18 21 22 22 27 28 33 37 41 46 48
55 61 60 56 52 52 57 54 50 48 47 46 44 44 42 42 46 49 50 51 51 50 51 40 24 16 11 10 11 15 17 19 17 18 22 23 26 27 30 34 38 42 45 48
56 59 60 59 58 53 58 58 53 50 49 47 46 46 44 46 49 52 52 52 50 52 46 25 17 14 11 10 11 16 18 19 19 19 22 23 25 27 31 35 38 41 44 48
54 54 60 60 62 56 59 61 57 52 51 50 49 47 48 49 52 53 52 53 52 50 36 22 18 13 11 11 11 16 20 20 21 21 22 23 24 25 33 34 37 42 45 49
60 63 65 63 62 57 60 63 59 56 54 54 52 50 51 53 54 54 54 52 49 43 29 19 16 14 13 12 12 15 20 22 23 22 22 22 22 30 33 35 38 43 46 50
61 64 64 66 65 60 57 65 64 60 58 57 55 53 55 55 56 55 52 48 45 34 24 17 15 14 15 13 14 17 22 23 24 22 22 22 25 30 32 37 40 44 49 52
58 61 63 65 70 66 60 67 65 64 63 61 58 57 57 58 57 52 48 48 45 32 22 17 16 16 15 15 16 20 23 24 24 23 23 24 25 26 31 36 40 45 49 53
51 54 61 67 70 68 66 68 67 66 67 64 61 61 61 60 54 50 50 47 33 25 18 17 16 16 16 17 18 22 22 23 24 24 24 23 23 25 29 33 38 42 47 53
53 52 62 68 72 74 70 71 71 70 71 68 68 65 62 58 53 51 51 38 24 20 18 18 17 17 18 18 21 21 22 22 24 23 23 23 23 24 27 31 37 41 46 52
59 60 64 72 76 76 77 79 78 75 73 74 71 66 61 54 52 49 43 31 22 19 18 18 19 19 19 20 22 22 21 24 23 20 21 21 22 23 25 29 35 41 45 50
73 71 73 76 77 80 82 83 81 78 80 77 69 63 57 55 54 49 33 24 20 18 19 20 21 20 21 22 23 22 22 23 20 17 17 15 18 20 20 24 31 37 44 45
78 81 83 83 83 84 86 86 84 83 78 70 65 60 57 55 48 36 28 22 20 20 21 22 22 22 23 24 23 22 21 21 18 16 15 14 15 16 17 16 17 26 39 47
91 92 91 88 85 86 86 86 83 76 69 67 65 63 60 50 37 27 24 21 20 22 23 23 24 24 25 25 24 22 21 20 18 16 15 14 14 14 15 15 17 18 25 42
97 95 91 90 91 90 90 82 75 70 69 67 65 62 52 40 30 26 23 21 23 24 24 25 25 26 27 25 23 22 21 20 18 16 15 14 14 14 15 15 17 19 20 24

GFSNGP_prec_cthk_339.txt.gz
RH
32 37 39 35 35 42 42 43 48 42 41 33 34 35 37 37 37 39 45 52 54 51 50 46 46 49 52 55 58 62 62 62 62 58 60 59 55 44 39 35 24 17 17 20
32 33 36 34 35 40 43 43 34 31 33 40 42 43 45 44 45 51 54 52 50 46 44 46 47 48 49 50 52 54 53 56 57 54 51 48 39 34 22 16 14 16 19 22
41 37 39 37 36 39 40 42 46 47 45 43 47 48 50 51 54 53 50 46 41 42 44 44 44 46 47 48 49 51 52 52 50 48 43 34 24 16 12 15 16 18 22 23
49 42 46 34 38 39 43 47 48 47 45 43 46 47 50 51 50 48 42 40 41 42 42 44 46 48 49 49 50 51 49 47 44 36 27 18 13 12 15 16 17 21 22 23
54 51 40 34 39 42 44 45 44 43 43 45 46 49 52 49 44 39 39 41 41 42 44 46 48 49 49 49 49 48 45 42 34 22 14 12 13 14 16 17 19 20 21 24
62 55 52 38 37 36 42 47 42 39 43 47 46 52 48 41 38 42 42 40 41 43 45 47 47 47 47 47 46 45 44 35 20 12 12 13 13 16 17 19 18 19 21 25
66 61 48 36 34 39 47 46 39 37 41 43 41 37 38 40 42 42 40 40 42 44 46 47 46 47 46 45 44 45 37 20 12 11 12 13 16 17 18 18 18 19 22 25
67 66 55 38 34 38 42 40 39 38 38 39 36 35 36 42 42 41 39 40 43 45 47 46 45 45 45 43 44 38 22 13 11 11 13 16 17 18 18 17 18 21 23 27
54 54 43 41 37 37 38 42 42 39 37 36 33 35 40 41 41 39 39 41 44 45 46 45 45 46 45 42 38 24 15 12 12 13 14 17 18 19 19 20 23 24 26 29
54 49 42 39 40 40 38 39 44 41 38 34 34 39 41 41 38 38 40 41 43 45 46 47 47 45 42 39 26 17 14 13 12 12 16 17 19 20 21 26 27 28 30 32
64 61 56 51 48 42 38 45 49 45 40 37 39 40 41 39 38 38 39 41 43 46 47 48 46 44 42 30 17 14 14 13 12 14 16 18 20 20 25 28 30 31 35 36
74 64 61 57 57 51 43 47 53 48 43 43 42 40 41 39 38 38 39 42 44 46 48 47 46 45 37 21 14 13 12 13 12 15 17 18 20 22 27 28 30 33 35 37
70 67 63 63 59 55 46 45 53 52 44 45 46 43 42 40 39 39 40 43 45 47 49 47 47 44 26 15 13 13 13 13 14 14 18 19 21 24 26 29 31 33 35 36
76 72 67 61 59 58 55 52 53 56 50 48 47 46 44 42 40 40 42 44 46 48 49 48 47 37 19 12 13 13 14 14 15 14 18 21 24 26 27 29 31 33 36 37
72 67 68 64 59 57 58 54 54 58 55 51 50 48 46 44 42 43 44 46 48 49 51 48 45 28 15 13 13 14 16 16 16 16 20 23 24 25 26 29 30 32 34 38
67 66 62 58 55 58 61 58 57 57 60 55 52 51 48 47 44 45 47 49 50 51 49 48 39 21 13 13 14 15 16 17 18 19 22 24 24 23 26 29 30 32 34 36
64 61 60 56 53 56 59 60 60 58 62 60 56 52 51 50 47 49 51 52 52 49 48 44 32 17 14 13 14 15 16 18 19 21 24 24 24 25 27 29 30 32 34 38
57 57 56 59 56 55 56 60 62 62 61 66 60 56 55 53 52 53 54 54 53 51 48 42 26 16 14 15 15 16 17 18 20 23 25 25 25 25 27 28 30 32 35 38
60 58 57 60 55 56 56 59 64 64 63 69 65 61 59 58 56 57 58 57 52 49 47 37 22 16 15 16 17 18 19 19 21 25 26 25 25 25 24 26 29 32 35 38
50 56 54 62 58 64 68 69 68 68 67 70 69 65 64 62 61 62 63 56 50 48 45 29 20 16 16 17 18 19 20 21 23 25 27 26 24 22 22 25 28 31 34 38
53 54 51 56 66 68 68 70 72 73 74 73 71 69 69 66 67 67 63 55 55 51 39 26 19 17 18 19 20 21 21 22 24 25 25 23 21 20 20 23 27 30 33 37
52 53 55 55 59 63 65 67 69 79 79 77 76 74 72 73 72 68 62 55 52 46 31 24 20 19 19 20 21 22 23 24 25 23 22 20 20 17 17 20 23 27 31 35
55 51 55 52 49 56 60 68 69 83 82 79 79 77 77 79 74 71 62 57 48 35 28 23 20 20 21 22 22 24 24 25 24 23 20 19 17 16 15 15 16 20 26 33
56 53 49 49 52 58 63 69 74 85 84 83 82 81 82 81 75 68 60 53 41 31 26 23 22 22 22 23 24 25 26 26 23 21 20 18 17 15 15 14 14 15 16 26
60 60 60 59 64 68 68 69 78 85 89 87 86 88 86 79 70 62 55 46 35 29 25 23 23 23 24 25 26 27 27 25 22 21 20 18 16 16 15 14 14 14 15 17
74 76 75 72 73 74 74 75 83 96 95 92 91 89 80 73 67 59 49 38 31 28 25 24 24 24 25 27 28 28 26 24 22 21 20 18 17 16 15 14 13 14 15 17
84 83 84 82 83 83 83 85 95 97 94 92 89 82 75 68 60 51 41 33 30 27 25 25 24 25 27 29 29 27 25 24 22 21 19 18 17 16 15 14 14 15 16 17